EA2MKR Weather Reports


time (UTC)temp
C
wind
direction
speed
KPH
gust
KPH
rain 1hr
cm
rain 24hr
cm
rain mn
cm
humidity
%
barometer
mb
20260510204841 10 107 1.6 4.8 0.00 0.79 0.79 93 948.9
20260510204204 10 106 3.2 4.8 0.00 0.79 0.79 93 948.7
20260510204132 10 106 1.6 4.8 0.00 0.79 0.79 93 948.7
20260510203703 10 104 3.2 4.8 0.00 0.79 0.79 93 948.6
20260510203632 10 104 3.2 4.8 0.00 0.79 0.79 93 948.6
20260510203202 10 127 0.0 0.0 0.00 0.79 0.79 93 948.6
20260510203133 10 127 0.0 0.0 0.00 0.79 0.79 93 948.5
20260510202702 10 127 0.0 0.0 0.00 0.79 0.79 92 948.5
20260510202633 10 127 0.0 0.0 0.00 0.79 0.79 92 948.5
20260510202332 10 127 0.0 0.0 0.00 0.79 0.79 92 948.4
20260510201703 10 127 0.0 0.0 0.00 0.79 0.79 92 948.4
20260510201619 10 127 0.0 4.8 0.00 0.79 0.79 92 948.3
20260510201202 10 127 0.0 4.8 0.00 0.79 0.79 91 948.3
20260510201112 10 127 0.0 4.8 0.00 0.79 0.79 91 948.3
20260510200702 10 124 4.8 4.8 0.00 0.79 0.79 91 948.3
20260510200611 10 124 3.2 4.8 0.00 0.79 0.79 91 948.3
20260510200201 10 107 0.0 0.0 0.03 0.79 0.79 89 948.2
20260510200106 10 107 0.0 1.6 0.03 0.79 0.79 89 948.2
20260510195702 10 107 0.0 1.6 0.05 0.79 0.79 89 948.1
20260510195605 10 107 0.0 1.6 0.05 0.79 0.79 89 948.1
20260510195312 11 106 0.0 3.2 0.15 0.79 0.79 89 948.1
20260510194701 10 203 0.0 3.2 0.20 0.79 0.79 89 948.0
20260510194604 10 203 0.0 3.2 0.20 0.79 0.79 89 948.0
20260510194202 10 212 1.6 1.6 0.23 0.79 0.79 86 948.0
20260510194103 11 145 0.0 0.0 0.23 0.79 0.79 86 947.9
20260510193701 11 145 0.0 1.6 0.23 0.79 0.79 86 948.0
20260510193604 11 145 0.0 1.6 0.23 0.79 0.79 86 947.9
20260510193201 11 144 0.0 1.6 0.25 0.79 0.79 86 947.9
20260510193104 11 158 0.0 1.6 0.25 0.79 0.79 86 948.0
20260510192701 11 162 0.0 8.0 0.25 0.79 0.79 86 948.0
20260510192604 11 237 0.0 8.0 0.25 0.79 0.79 86 948.0
20260510192312 11 289 6.4 8.0 0.25 0.79 0.79 86 947.8
20260510191811 11 323 6.4 19.3 0.25 0.79 0.79 86 947.8
20260510191312 11 276 4.8 19.3 0.25 0.79 0.79 84 948.0
20260510190700 11 300 6.4 25.7 0.25 0.79 0.79 84 948.0
20260510190604 11 344 9.7 25.7 0.25 0.79 0.79 84 948.0
20260510190201 12 326 12.9 25.7 0.23 0.79 0.79 84 947.6
20260510190104 12 282 8.0 24.1 0.23 0.79 0.79 88 947.8
20260510185813 12 30 14.5 24.1 0.23 0.53 0.74 88 948.3
20260510185200 12 83 4.8 8.0 0.10 0.53 0.64 83 948.0
20260510185104 12 80 1.6 8.0 0.10 0.53 0.61 83 947.9
20260510184700 12 317 1.6 8.0 0.05 0.53 0.61 83 947.7
20260510184603 12 264 1.6 8.0 0.05 0.53 0.61 83 947.7
20260510184200 13 275 1.6 9.7 0.05 0.53 0.58 83 947.4
20260510184103 13 268 1.6 9.7 0.05 0.53 0.58 83 947.4
20260510183813 13 271 1.6 11.3 0.03 0.53 0.56 79 947.2
20260510183200 13 296 4.8 14.5 0.00 0.53 0.53 79 947.1
20260510183104 13 221 6.4 14.5 0.00 0.53 0.53 79 947.0
20260510182659 13 228 8.0 14.5 0.00 0.53 0.53 79 947.0
20260510182604 13 268 6.4 9.7 0.00 0.53 0.53 79 946.9
20260510182200 13 247 6.4 11.3 0.00 0.53 0.53 71 947.0
20260510182104 13 314 4.8 11.3 0.00 0.53 0.53 71 947.0
20260510181659 13 220 4.8 11.3 0.00 0.53 0.53 71 947.1
20260510181604 13 250 4.8 11.3 0.00 0.53 0.53 71 947.0
20260510181159 13 266 6.4 11.3 0.00 0.53 0.53 71 947.0
20260510181103 13 209 6.4 16.1 0.00 0.53 0.53 71 946.9
20260510180659 14 286 4.8 16.1 0.00 0.53 0.53 71 947.0
20260510180604 14 248 4.8 16.1 0.00 0.53 0.53 71 947.0
20260510180159 14 271 9.7 16.1 0.00 0.53 0.53 71 946.9
20260510180103 14 230 8.0 16.1 0.00 0.53 0.53 71 946.8
20260510175812 15 248 4.8 16.1 0.00 0.53 0.53 71 946.9
20260510175159 15 286 9.7 16.1 0.00 0.53 0.53 71 946.9
20260510175104 15 299 8.0 16.1 0.00 0.53 0.53 71 946.9
20260510174659 15 285 8.0 16.1 0.00 0.53 0.53 71 946.9
20260510174603 15 279 8.0 16.1 0.00 0.53 0.53 71 947.0
20260510174158 15 314 9.7 16.1 0.00 0.53 0.53 71 947.0
20260510174104 15 300 8.0 14.5 0.00 0.53 0.53 71 947.0
20260510173812 15 295 8.0 14.5 0.00 0.53 0.53 71 946.9
20260510173158 16 285 8.0 9.7 0.00 0.53 0.53 71 946.9
20260510173104 16 300 6.4 9.7 0.00 0.53 0.53 71 946.9
20260510172657 16 248 4.8 11.3 0.00 0.53 0.53 71 946.9
20260510172603 16 296 6.4 11.3 0.00 0.53 0.53 71 946.9
20260510172150 16 109 6.4 14.5 0.00 0.53 0.53 71 946.9
20260510172103 16 290 8.0 14.5 0.00 0.53 0.53 71 946.9
20260510171648 16 293 6.4 14.5 0.00 0.53 0.53 72 946.9
20260510171604 16 300 6.4 14.5 0.00 0.53 0.53 72 946.9
20260510171145 16 343 8.0 11.3 0.00 0.53 0.53 72 946.9
20260510171104 16 333 6.4 11.3 0.00 0.53 0.53 72 946.9
20260510170642 16 298 9.7 11.3 0.00 0.53 0.53 74 947.1
20260510170603 16 295 9.7 11.3 0.00 0.53 0.53 74 947.1
20260510170141 16 279 6.4 11.3 0.00 0.53 0.53 74 947.0
20260510170104 16 299 4.8 11.3 0.00 0.53 0.53 74 947.0
20260510165636 16 351 9.7 11.3 0.00 0.53 0.53 74 947.1
20260510165603 16 355 9.7 11.3 0.00 0.53 0.53 74 947.1
20260510165135 15 350 6.4 11.3 0.00 0.53 0.53 74 947.1
20260510165104 15 305 6.4 11.3 0.00 0.53 0.53 74 947.1
20260510164631 15 336 6.4 11.3 0.00 0.53 0.53 75 947.1
20260510164604 15 313 8.0 14.5 0.00 0.53 0.53 75 947.1
20260510164131 15 316 8.0 17.7 0.00 0.53 0.53 75 947.0
20260510164104 15 334 8.0 17.7 0.00 0.53 0.53 75 947.0
20260510163626 15 305 6.4 17.7 0.00 0.53 0.53 75 946.9
20260510163603 15 295 6.4 17.7 0.00 0.53 0.53 75 946.9
20260510163103 15 309 11.3 17.7 0.00 0.53 0.53 75 947.0
20260510162621 15 300 8.0 11.3 0.00 0.53 0.53 81 947.0
20260510162603 15 300 6.4 11.3 0.00 0.53 0.53 81 947.0
20260510162104 15 326 6.4 11.3 0.00 0.53 0.53 81 947.0
20260510161604 15 299 6.4 11.3 0.00 0.53 0.53 81 947.0
20260510161103 15 309 6.4 11.3 0.00 0.53 0.53 81 946.9
20260510160600 14 272 4.8 11.3 0.00 0.53 0.53 81 946.9
20260510160059 15 292 6.4 8.0 0.00 0.53 0.53 81 947.1
20260510155559 14 305 3.2 8.0 0.00 0.53 0.53 92 947.2
20260510155059 13 333 4.8 6.4 0.00 0.53 0.53 92 947.3
20260510154558 13 303 1.6 6.4 0.00 0.53 0.53 92 947.3
20260510154100 13 337 1.6 8.0 0.03 0.53 0.53 92 947.3
20260510153559 13 358 4.8 8.0 0.05 0.53 0.53 92 947.2
20260510153059 13 286 4.8 6.4 0.10 0.53 0.53 92 947.3
20260510153055 13 299 6.4 6.4 0.10 0.53 0.53 92 947.2
20260510152555 13 268 3.2 6.4 0.15 0.53 0.53 92 946.9
20260510152547 13 268 4.8 6.4 0.15 0.53 0.53 92 947.0
20260510152033 12 278 3.2 6.4 0.20 0.53 0.53 92 947.2
20260510151555 12 264 3.2 6.4 0.25 0.53 0.53 92 947.4
20260510151533 12 264 3.2 6.4 0.25 0.53 0.53 92 947.5
20260510151055 12 266 3.2 8.0 0.33 0.53 0.53 92 947.6
20260510151034 12 250 3.2 8.0 0.33 0.53 0.53 92 947.7
20260510150556 12 281 3.2 8.0 0.38 0.53 0.53 92 947.9
20260510150534 12 281 3.2 8.0 0.41 0.53 0.53 92 948.0
20260510150055 12 262 4.8 8.0 0.43 0.53 0.53 92 948.0
20260510150034 12 281 4.8 8.0 0.43 0.53 0.53 92 948.0
20260510145533 11 223 3.2 6.4 0.43 0.13 0.53 92 947.9
20260510145243 11 264 4.8 6.4 0.48 0.13 0.53 92 947.9
20260510144555 11 219 3.2 4.8 0.53 0.13 0.53 91 948.0
20260510144534 11 217 3.2 4.8 0.53 0.13 0.53 91 948.1
20260510144054 11 104 0.0 3.2 0.51 0.13 0.48 91 948.3
20260510144034 11 104 0.0 3.2 0.51 0.13 0.48 91 948.4
20260510143555 11 104 0.0 8.0 0.48 0.13 0.48 91 948.5
20260510143533 11 104 0.0 8.0 0.48 0.13 0.46 91 948.4
20260510143055 11 97 4.8 11.3 0.43 0.13 0.43 91 948.5
20260510143034 11 97 4.8 14.5 0.43 0.13 0.43 91 948.5
20260510142741 11 106 6.4 17.7 0.41 0.13 0.36 83 948.4
20260510142054 11 85 11.3 17.7 0.33 0.13 0.33 83 948.5
20260510142034 11 86 11.3 17.7 0.33 0.13 0.33 83 948.5
20260510141554 11 90 9.7 16.1 0.28 0.13 0.28 83 948.3
20260510141533 11 96 4.8 16.1 0.28 0.13 0.28 83 948.3
20260510141054 12 85 9.7 16.1 0.23 0.13 0.23 83 948.3
20260510141005 12 94 9.7 16.1 0.23 0.13 0.23 83 948.3
20260510140554 12 75 6.4 8.0 0.15 0.13 0.15 83 948.3
20260510140513 12 65 6.4 8.0 0.15 0.13 0.13 83 948.4
20260510140054 12 281 0.0 1.6 0.13 0.13 0.13 57 948.3
20260510140005 12 281 0.0 1.6 0.13 0.00 0.10 57 948.2
20260510135714 12 276 0.0 17.7 0.10 0.00 0.10 57 948.0
20260510135214 13 299 6.4 30.6 0.05 0.00 0.05 57 948.0
20260510134715 14 314 17.7 41.8 0.00 0.00 0.00 57 948.3
20260510134214 15 323 17.7 41.8 0.00 0.00 0.00 57 947.9
20260510133553 16 307 14.5 27.4 0.00 0.00 0.00 57 947.2
20260510133504 16 321 14.5 27.4 0.00 0.00 0.00 57 947.2
20260510133054 16 326 6.4 19.3 0.00 0.00 0.00 52 946.6
20260510133006 16 35 6.4 19.3 0.00 0.00 0.00 52 946.6
20260510132554 16 343 11.3 19.3 0.00 0.00 0.00 52 946.6
20260510132505 16 317 9.7 16.1 0.00 0.00 0.00 52 946.6
20260510132053 16 337 9.7 16.1 0.00 0.00 0.00 52 946.6
20260510132005 16 344 6.4 16.1 0.00 0.00 0.00 52 946.5
20260510131553 16 38 6.4 16.1 0.00 0.00 0.00 52 946.5
20260510131505 16 82 6.4 19.3 0.00 0.00 0.00 52 946.6
20260510131053 16 4 6.4 19.3 0.00 0.00 0.00 57 946.6
20260510131006 16 41 6.4 19.3 0.00 0.00 0.00 57 946.7
20260510130553 17 41 9.7 19.3 0.00 0.00 0.00 55 946.7
20260510130506 17 320 8.0 20.9 0.00 0.00 0.00 55 946.7
20260510130053 17 326 8.0 20.9 0.00 0.00 0.00 55 946.7
20260510130005 17 0 8.0 20.9 0.00 0.00 0.00 55 946.7
20260510125614 17 343 12.9 20.9 0.00 0.00 0.00 55 946.7
20260510125612 17 350 11.3 20.9 0.00 0.00 0.00 55 946.7
20260510125214 17 343 14.5 20.9 0.00 0.00 0.00 56 946.7
20260510124714 17 0 11.3 17.7 0.00 0.00 0.00 56 946.6
20260510124214 17 330 9.7 19.3 0.00 0.00 0.00 56 946.6
20260510123552 17 340 12.9 24.1 0.00 0.00 0.00 56 946.7
20260510123504 17 331 14.5 24.1 0.00 0.00 0.00 56 946.8
20260510123052 18 320 11.3 24.1 0.00 0.00 0.00 56 946.8
20260510123005 18 316 14.5 24.1 0.00 0.00 0.00 60 946.8
20260510122552 18 330 9.7 19.3 0.00 0.00 0.00 60 946.8
20260510122507 18 290 11.3 19.3 0.00 0.00 0.00 60 946.8
20260510122052 18 305 8.0 19.3 0.00 0.00 0.00 60 946.9
20260510122006 17 306 6.4 19.3 0.00 0.00 0.00 60 946.9
20260510121713 17 320 11.3 19.3 0.00 0.00 0.00 57 947.0
20260510121051 17 357 6.4 19.3 0.00 0.00 0.00 55 947.1
20260510121004 17 319 8.0 19.3 0.00 0.00 0.00 55 947.1
20260510120552 17 334 8.0 19.3 0.00 0.00 0.00 61 947.2
20260510120506 17 337 9.7 19.3 0.00 0.00 0.00 61 947.2
20260510120051 17 350 6.4 16.1 0.00 0.00 0.00 61 947.2
20260510120005 17 329 6.4 16.1 0.00 0.00 0.00 61 947.3
20260510115552 17 302 9.7 17.7 0.00 0.00 0.00 61 947.4
20260510115505 17 338 9.7 17.7 0.00 0.00 0.00 61 947.3
20260510115051 16 340 8.0 17.7 0.00 0.00 0.00 61 947.4
20260510115006 16 320 9.7 17.7 0.00 0.00 0.00 61 947.4
20260510114713 16 317 11.3 20.9 0.00 0.00 0.00 61 947.4
20260510114051 16 340 6.4 20.9 0.00 0.00 0.00 61 947.5
20260510114005 16 341 9.7 20.9 0.00 0.00 0.00 61 947.5
20260510113551 16 303 8.0 20.9 0.00 0.00 0.00 61 947.6
20260510113505 16 49 8.0 22.5 0.00 0.00 0.00 61 947.6
20260510113051 17 317 12.9 22.5 0.00 0.00 0.00 61 947.8
20260510113006 17 327 11.3 22.5 0.00 0.00 0.00 61 947.7
20260510112550 17 347 14.5 22.5 0.00 0.00 0.00 61 947.9
20260510112505 17 340 12.9 22.5 0.00 0.00 0.00 61 947.8
20260510112050 17 34 14.5 25.7 0.00 0.00 0.00 57 947.8
20260510112004 17 3 14.5 25.7 0.00 0.00 0.00 57 947.7
20260510111551 17 23 14.5 25.7 0.00 0.00 0.00 57 947.7
20260510111504 17 338 16.1 25.7 0.00 0.00 0.00 57 947.8
20260510111050 17 331 16.1 27.4 0.00 0.00 0.00 60 947.8
20260510111006 17 337 16.1 27.4 0.00 0.00 0.00 60 947.7
20260510110715 17 333 17.7 27.4 0.00 0.00 0.00 60 947.8
20260510110050 17 286 12.9 22.5 0.00 0.00 0.00 67 947.8
20260510110005 17 307 12.9 22.5 0.00 0.00 0.00 67 947.8
20260510105544 17 331 9.7 22.5 0.00 0.00 0.00 67 947.9
20260510105505 17 336 9.7 22.5 0.00 0.00 0.00 67 947.9
20260510105042 17 358 9.7 17.7 0.00 0.00 0.00 67 948.0
20260510105004 17 313 8.0 17.7 0.00 0.00 0.00 67 948.0
20260510104542 17 331 8.0 20.9 0.00 0.00 0.00 67 948.0
20260510104505 17 3 8.0 20.9 0.00 0.00 0.00 67 948.0
20260510104042 16 334 14.5 20.9 0.00 0.00 0.00 67 948.0
20260510104005 16 323 16.1 20.9 0.00 0.00 0.00 67 948.0
20260510103540 16 316 12.9 19.3 0.00 0.00 0.00 67 948.1
20260510103505 16 289 12.9 19.3 0.00 0.00 0.00 67 948.1
20260510103032 16 337 6.4 27.4 0.00 0.00 0.00 67 948.0
20260510103006 16 313 6.4 27.4 0.00 0.00 0.00 67 948.0
20260510102714 16 353 8.0 27.4 0.00 0.00 0.00 69 948.1
20260510102214 16 309 11.3 17.7 0.00 0.00 0.00 69 948.1
20260510101531 16 298 9.7 22.5 0.00 0.00 0.00 69 948.1
20260510101505 16 0 9.7 22.5 0.00 0.00 0.00 69 948.1
20260510101032 16 292 12.9 22.5 0.00 0.00 0.00 69 948.2
20260510101005 16 312 12.9 22.5 0.00 0.00 0.00 69 948.2
20260510100714 16 321 8.0 20.9 0.00 0.00 0.00 69 948.1
20260510100031 16 305 8.0 19.3 0.00 0.00 0.00 69 948.1
20260510100006 16 303 8.0 19.3 0.00 0.00 0.00 69 948.1
20260510095531 16 279 11.3 19.3 0.00 0.00 0.00 69 948.1
20260510095504 16 316 11.3 19.3 0.00 0.00 0.00 69 948.1
20260510095031 16 295 9.7 17.7 0.00 0.00 0.00 69 948.2
20260510095004 16 298 11.3 17.7 0.00 0.00 0.00 69 948.2
20260510094531 16 313 9.7 22.5 0.00 0.00 0.00 69 948.2
20260510094504 16 309 9.7 22.5 0.00 0.00 0.00 69 948.2
20260510094031 16 34 9.7 22.5 0.00 0.00 0.00 68 948.4
20260510094006 16 341 11.3 25.7 0.00 0.00 0.00 68 948.4
20260510093531 16 299 9.7 25.7 0.00 0.00 0.00 68 948.5
20260510093505 16 296 9.7 25.7 0.00 0.00 0.00 68 948.5
20260510093031 16 3 14.5 25.7 0.00 0.00 0.00 68 948.5
20260510093005 16 343 11.3 27.4 0.00 0.00 0.00 68 948.5
20260510092531 16 317 9.7 27.4 0.00 0.00 0.00 69 948.5
20260510092506 16 326 9.7 27.4 0.00 0.00 0.00 69 948.5
20260510092031 16 8 14.5 27.4 0.00 0.00 0.00 75 948.5
20260510092005 16 333 11.3 19.3 0.00 0.00 0.00 75 948.5
20260510091714 15 345 8.0 20.9 0.00 0.00 0.00 75 948.5
20260510091031 15 327 9.7 22.5 0.00 0.00 0.00 71 948.6
20260510091005 15 303 11.3 22.5 0.00 0.00 0.00 71 948.6
20260510090216 15 303 14.5 20.9 0.00 0.00 0.00 74 948.8
20260510085714 15 248 12.9 20.9 0.00 0.00 0.00 77 948.7
20260510085016 15 350 9.7 19.3 0.00 0.00 0.00 77 948.7
20260510085005 14 323 9.7 19.3 0.00 0.00 0.00 77 948.7
20260510084712 15 319 9.7 20.9 0.00 0.00 0.00 77 948.7
20260510084004 15 298 12.9 20.9 0.00 0.00 0.00 77 948.6
20260510083511 14 317 6.4 16.1 0.00 0.00 0.00 77 948.7
20260510083504 14 309 6.4 16.1 0.00 0.00 0.00 77 948.7
20260510083012 13 305 9.7 16.1 0.00 0.00 0.00 77 948.7
20260510083005 13 278 9.7 16.1 0.00 0.00 0.00 77 948.7
20260510082714 14 355 8.0 11.3 0.00 0.00 0.00 77 948.6
20260510082009 14 300 6.4 11.3 0.00 0.00 0.00 77 948.6
20260510082005 14 323 6.4 11.3 0.00 0.00 0.00 77 948.6
20260510081509 14 278 4.8 11.3 0.00 0.00 0.00 77 948.6
20260510081505 14 271 4.8 11.3 0.00 0.00 0.00 77 948.6
20260510081010 14 259 6.4 11.3 0.00 0.00 0.00 77 948.6
20260510081005 14 278 6.4 11.3 0.00 0.00 0.00 77 948.6
20260510080505 14 244 3.2 11.3 0.00 0.00 0.00 77 948.5
20260510080213 13 313 8.0 11.3 0.00 0.00 0.00 78 948.5
20260510075509 13 259 6.4 11.3 0.00 0.00 0.00 78 948.6
20260510075505 13 299 6.4 11.3 0.00 0.00 0.00 78 948.6
20260510075011 13 286 6.4 9.7 0.00 0.00 0.00 78 948.6
20260510075005 13 290 6.4 9.7 0.00 0.00 0.00 78 948.6
20260510074505 13 324 6.4 14.5 0.00 0.00 0.00 79 948.5
20260510074005 13 289 9.7 14.5 0.00 0.00 0.00 79 948.5
20260510073510 13 312 8.0 14.5 0.00 0.00 0.00 78 948.5
20260510073504 13 288 8.0 14.5 0.00 0.00 0.00 78 948.5
20260510073005 13 307 6.4 14.5 0.00 0.00 0.00 80 948.5
20260510072505 13 330 6.4 14.5 0.00 0.00 0.00 78 948.4
20260510072005 13 309 6.4 11.3 0.00 0.00 0.00 78 948.4
20260510071505 13 306 9.7 11.3 0.00 0.00 0.00 79 948.2
20260510071005 13 292 6.4 11.3 0.00 0.00 0.00 79 948.3
20260510070713 13 237 1.6 6.4 0.00 0.00 0.00 79 948.2
20260510070006 13 279 3.2 6.4 0.00 0.00 0.00 79 948.2
20260510065504 13 290 3.2 8.0 0.00 0.00 0.00 81 948.2
20260510065005 13 237 3.2 8.0 0.00 0.00 0.00 79 948.2
20260510064505 13 286 4.8 9.7 0.00 0.00 0.00 79 948.1
20260510064005 13 295 6.4 11.3 0.00 0.00 0.00 79 948.1
20260510063505 13 305 6.4 14.5 0.00 0.00 0.00 81 948.2
20260510063003 12 316 8.0 14.5 0.00 0.00 0.00 81 948.2
20260510062712 12 281 8.0 11.3 0.00 0.00 0.00 83 948.1
20260510061958 12 312 6.4 11.3 0.00 0.00 0.00 84 948.1
20260510061450 12 252 6.4 9.7 0.00 0.00 0.00 85 948.0
20260510060951 12 258 3.2 8.0 0.00 0.00 0.00 86 947.9
20260510060449 11 265 3.2 8.0 0.00 0.00 0.00 85 947.8
20260510055950 11 268 3.2 4.8 0.00 0.00 0.00 85 947.8
20260510055658 11 213 1.6 4.8 0.00 0.00 0.00 85 947.7
20260510054950 11 235 1.6 4.8 0.00 0.00 0.00 85 947.7
20260510054449 12 261 0.0 3.2 0.00 0.00 0.00 85 947.8
20260510053950 12 262 0.0 3.2 0.00 0.00 0.00 85 947.6
20260510053449 12 213 1.6 3.2 0.00 0.00 0.00 85 947.5
20260510053157 11 217 0.0 3.2 0.00 0.00 0.00 85 947.6
20260510052448 12 217 0.0 3.2 0.00 0.00 0.00 85 947.6
20260510051939 -17 131 0.0 1.6 0.00 0.00 0.00 947.7
20260510051437 12 131 0.0 1.6 0.00 0.00 0.00 84 947.6
20260510050936 12 131 0.0 1.6 0.00 0.00 0.00 84 947.6
20260510050435 12 131 0.0 0.0 0.00 0.00 0.00 84 947.5
20260510045937 12 130 0.0 3.2 0.00 0.00 0.00 84 947.6
20260510045644 12 127 0.0 3.2 0.00 0.00 0.00 84 947.7
20260510044935 12 125 0.0 1.6 0.00 0.00 0.00 84 947.7
20260510044435 11 125 0.0 1.6 0.00 0.00 0.00 84 947.7
20260510043933 12 135 0.0 1.6 0.00 0.00 0.00 83 947.7
20260510043422 12 134 1.6 1.6 0.00 0.00 0.00 81 947.6
20260510043123 12 252 0.0 3.2 0.00 0.00 0.00 81 947.6
20260510042616 12 252 0.0 9.7 0.00 0.00 0.00 81 947.5
20260510041908 12 49 4.8 9.7 0.00 0.00 0.00 81 947.6
20260510041408 12 48 3.2 8.0 0.00 0.00 0.00 81 947.6
20260510040908 12 300 1.6 11.3 0.00 0.00 0.00 81 947.6
20260510040409 12 331 3.2 16.1 0.00 0.00 0.00 81 947.6
20260510035907 12 326 6.4 16.1 0.00 0.00 0.00 84 947.6
20260510035408 12 61 3.2 6.4 0.00 0.00 0.00 84 947.6
20260510034907 12 261 0.0 4.8 0.00 0.00 0.00 84 947.6
20260510034408 12 302 3.2 8.0 0.00 0.00 0.00 84 947.6
20260510033906 12 298 1.6 11.3 0.00 0.00 0.00 81 947.5
20260510033410 12 210 8.0 16.1 0.00 0.00 0.00 81 947.5
20260510032906 12 292 9.7 20.9 0.00 0.00 0.00 81 947.4
20260510032408 12 306 8.0 20.9 0.00 0.00 0.00 81 947.3
20260510032114 12 293 8.0 14.5 0.00 0.00 0.00 81 947.3
20260510031411 12 299 6.4 14.5 0.00 0.00 0.00 81 947.2
20260510031407 12 292 6.4 14.5 0.00 0.00 0.00 81 947.2
20260510030910 12 302 6.4 14.5 0.00 0.00 0.00 81 947.3
20260510030906 12 341 4.8 14.5 0.00 0.00 0.00 81 947.3
20260510030407 13 279 6.4 14.5 0.00 0.00 0.00 81 947.2
20260510025910 13 274 3.2 9.7 0.00 0.00 0.00 81 947.3
20260510025906 13 259 3.2 9.7 0.00 0.00 0.00 81 947.3
20260510025407 13 298 3.2 11.3 0.00 0.00 0.00 81 947.2
20260510024910 13 288 6.4 17.7 0.00 0.00 0.00 81 947.2
20260510024906 13 288 6.4 17.7 0.00 0.00 0.00 81 947.2
20260510024410 13 289 4.8 17.7 0.00 0.00 0.00 81 947.2
20260510024406 13 289 4.8 17.7 0.00 0.00 0.00 81 947.2
20260510023909 13 296 9.7 22.5 0.00 0.00 0.00 81 947.0
20260510023905 13 274 9.7 22.5 0.00 0.00 0.00 81 947.0
20260510023413 13 299 9.7 22.5 0.00 0.00 0.00 81 947.3
20260510023406 13 274 9.7 22.5 0.00 0.00 0.00 81 947.3
20260510022909 13 276 9.7 17.7 0.00 0.00 0.00 81 947.5
20260510022905 13 276 9.7 17.7 0.00 0.00 0.00 81 947.5
20260510022410 13 303 12.9 17.7 0.00 0.00 0.00 81 947.6
20260510022406 13 286 11.3 17.7 0.00 0.00 0.00 81 947.6
20260510021908 13 302 11.3 17.7 0.00 0.00 0.00 81 947.5
20260510021904 13 302 11.3 17.7 0.00 0.00 0.00 81 947.5
20260510021410 12 214 8.0 16.1 0.00 0.00 0.00 81 947.4
20260510021406 12 307 8.0 16.1 0.00 0.00 0.00 81 947.4
20260510020909 12 234 4.8 11.3 0.00 0.00 0.00 81 947.4
20260510020905 12 234 4.8 11.3 0.00 0.00 0.00 81 947.4
20260510020412 12 278 3.2 9.7 0.00 0.00 0.00 81 947.4
20260510020405 12 279 3.2 9.7 0.00 0.00 0.00 81 947.4
20260510015908 12 282 4.8 9.7 0.00 0.00 0.00 80 947.4
20260510015904 12 224 4.8 9.7 0.00 0.00 0.00 80 947.4
20260510015409 13 250 6.4 9.7 0.00 0.00 0.00 80 947.3
20260510015405 13 250 6.4 9.7 0.00 0.00 0.00 80 947.3
20260510014909 13 245 3.2 11.3 0.00 0.00 0.00 80 947.3
20260510014904 13 238 3.2 11.3 0.00 0.00 0.00 80 947.3
20260510014409 12 276 6.4 11.3 0.00 0.00 0.00 81 947.4
20260510014405 12 299 8.0 11.3 0.00 0.00 0.00 81 947.4
20260510013909 12 258 4.8 9.7 0.00 0.00 0.00 81 947.4
20260510013904 12 281 4.8 9.7 0.00 0.00 0.00 81 947.4
20260510013412 12 266 4.8 8.0 0.00 0.00 0.00 81 947.5
20260510013405 12 266 4.8 8.0 0.00 0.00 0.00 81 947.5
20260510012908 12 247 3.2 6.4 0.00 0.00 0.00 81 947.5
20260510012904 12 247 3.2 6.4 0.00 0.00 0.00 81 947.5
20260510012613 12 262 1.6 8.0 0.00 0.00 0.00 81 947.6
20260510011908 12 252 1.6 11.3 0.00 0.00 0.00 81 947.5
20260510011904 12 252 1.6 11.3 0.00 0.00 0.00 81 947.5
20260510011409 12 324 4.8 11.3 0.00 0.00 0.00 81 947.5
20260510011404 13 290 3.2 11.3 0.00 0.00 0.00 81 947.5
20260510010907 13 289 4.8 9.7 0.00 0.00 0.00 81 947.6
20260510010903 12 289 4.8 9.7 0.00 0.00 0.00 81 947.6
20260510010405 13 275 6.4 14.5 0.00 0.00 0.00 81 947.6
20260510005903 13 289 6.4 14.5 0.00 0.00 0.00 81 947.6
20260510005404 13 251 8.0 14.5 0.00 0.00 0.00 81 947.6
20260510004903 13 300 8.0 14.5 0.00 0.00 0.00 82 947.6
20260510004612 13 269 6.4 11.3 0.00 0.00 0.00 82 947.7
20260510004112 13 283 6.4 11.3 0.00 0.00 0.00 82 947.8
20260510003404 13 275 4.8 11.3 0.00 0.00 0.00 82 947.9
20260510002903 13 264 4.8 9.7 0.00 0.00 0.00 82 947.9
20260510002404 13 283 4.8 22.5 0.00 0.00 0.00 82 947.8
20260510002111 13 278 9.7 22.5 0.00 0.00 0.00 82 947.8
20260510001403 13 271 4.8 16.1 0.00 0.00 0.00 82 947.7
20260510000902 13 206 8.0 16.1 0.00 0.00 0.00 82 947.8
20260510000403 13 279 4.8 16.1 0.00 0.00 0.00 82 947.9
20260509235902 13 286 9.7 16.1 0.00 0.00 0.00 83 947.9
20260509235403 12 293 3.2 14.5 0.00 0.00 0.00 83 947.9
20260509234901 12 313 4.8 14.5 0.00 0.00 0.00 83 948.0
20260509234403 13 257 4.8 14.5 0.00 0.00 0.00 83 948.0
20260509234109 13 334 4.8 14.5 0.00 0.00 0.00 83 948.1
20260509233403 13 279 3.2 11.3 0.00 0.00 0.00 83 948.1
20260509233110 13 250 4.8 11.3 0.00 0.00 0.00 82 948.1
20260509232402 13 298 6.4 19.3 0.00 0.00 0.00 82 948.1
20260509231901 13 334 9.7 19.3 0.00 0.00 0.00 82 948.2
20260509231402 13 269 6.4 16.1 0.00 0.00 0.00 81 948.2
20260509231109 13 303 9.7 16.1 0.00 0.00 0.00 81 948.3
20260509230612 13 250 6.4 20.9 0.00 0.00 0.00 80 948.5
20260509225901 13 285 12.9 20.9 0.00 0.00 0.00 80 948.4
20260509225401 13 276 9.7 14.5 0.00 0.00 0.00 80 948.4
20260509224901 13 276 4.8 16.1 0.00 0.00 0.00 80 948.4
20260509224402 13 299 4.8 16.1 0.00 0.00 0.00 80 948.5
20260509224109 13 295 8.0 11.3 0.00 0.00 0.00 80 948.5
20260509223359 -17 266 6.4 1.6 0.00 0.00 0.00 948.5
20260509223136 -17 0.0 0.0 0.00 0.00 0.00
20260509222635 13 244 6.4 9.7 0.00 0.00 0.00 80 948.5
20260509222123 13 244 6.4 9.7 0.00 0.00 0.00 80 948.5
20260509221620 13 306 6.4 11.3 0.00 0.00 0.00 80 948.4
20260509221124 13 269 6.4 16.1 0.00 0.00 0.00 80 948.4
20260509220828 13 309 9.7 16.1 0.00 0.00 0.00 81 948.4
20260509220122 13 283 8.0 8.0 0.00 0.00 0.00 81 948.4
20260509215902 -17 0.0 0.0 0.00 0.00 0.00 948.4
20260509215831 13 324 8.0 14.5 0.00 0.00 0.00 82 948.4
20260509215402 13 324 8.0 14.5 0.00 0.00 0.00 82 948.4
20260509215332 13 324 8.0 14.5 0.00 0.00 0.00 82 948.4
20260509214831 13 320 4.8 6.4 0.00 0.00 0.00 82 948.4
20260509214335 13 292 6.4 6.4 0.00 0.00 0.00 82 948.3
20260509214330 13 276 3.2 6.4 0.00 0.00 0.00 82 948.4
20260509213804 13 216 3.2 8.0 0.00 0.00 0.00 81 948.3
20260509213333 13 257 6.4 8.0 0.00 0.00 0.00 81 948.3
20260509213305 13 244 6.4 8.0 0.00 0.00 0.00 81 948.3
20260509212833 13 235 6.4 8.0 0.00 0.00 0.00 81 948.2
20260509212805 13 237 4.8 11.3 0.00 0.00 0.00 81 948.2
20260509212513 13 233 3.2 11.3 0.00 0.00 0.00 81 948.0
20260509211832 13 274 9.7 11.3 0.00 0.00 0.00 81 948.1
20260509211805 13 289 6.4 9.7 0.00 0.00 0.00 81 948.1
20260509211513 13 258 4.8 9.7 0.00 0.00 0.00 81 948.2
20260509210832 14 237 3.2 6.4 0.00 0.00 0.00 81 948.0
20260509210805 14 238 3.2 6.4 0.00 0.00 0.00 81 948.1
20260509210332 14 245 3.2 6.4 0.00 0.00 0.00 81 948.1
20260509210305 14 228 1.6 6.4 0.00 0.00 0.00 81 948.1
20260509205833 14 224 4.8 9.7 0.00 0.00 0.00 81 948.1
20260509205804 14 235 6.4 9.7 0.00 0.00 0.00 81 948.0
20260509205332 14 275 4.8 9.7 0.00 0.00 0.00 81 948.0
20260509205307 14 234 6.4 9.7 0.00 0.00 0.00 81 948.0